Weather History for KPHF - April, 2014

Change the Weather History Date:

Sunday, April 27, 2014

  Actual Average Record
Temperature  
Mean Temperature 61 °F -  
Max Temperature 68 °F 68 °F 88 °F (1954)
Min Temperature 54 °F 48 °F 35 °F (2001)
Degree Days  
Heating Degree Days 4    
Growing Degree Days 11 (Base 50)    
Moisture  
Dew Point 45 °F    
Average Humidity 57    
Maximum Humidity 77    
Minimum Humidity 43    
Precipitation  
Precipitation 0.00 in - - ()
Sea Level Pressure  
Sea Level Pressure 30.01 in    
Wind  
Wind Speed 7 mph (ENE)    
Max Wind Speed 15 mph    
Max Gust Speed -    
Visibility 10 miles    
Events      
Averages and records for this station are not official NWS values.
T = Trace of Precipitation, MM = Missing Value Source: NWS Daily Summary

Daily Weather History Graph

Daily Weather History Graph

Search for Another Location

Airport or City:

Trip Planner

Search our weather history database for the weather conditions in past years. The results will help you decide how hot, cold, wet, or windy it might be!

Date:

Astronomy

Apr. 27, 2014 Rise Set
Actual Time 6:16 AM EDT 7:51 PM EDT
Civil Twilight 5:48 AM EDT 8:19 PM EDT
Nautical Twilight 5:15 AM EDT 8:52 PM EDT
Astronomical Twilight 4:40 AM EDT 9:28 PM EDT
Moon 5:12 AM EDT (4/27) 6:25 PM EDT (4/27)
Length of Visible Light 14h 30m
Length of Day
13h 35m
Waning Crescent, 3% of the Moon is Illuminated
Apr 27
Waning Crescent
Apr 29
New
May 6
First Quarter
May 14
Full
May 21
Last Quarter

Hourly Weather History & Observations

Time (EDT) Temp. Dew Point Humidity Pressure Visibility Wind Dir Wind Speed Gust Speed Precip Events Conditions
12:54 AM 68.0 °F 48.9 °F 50% 29.90 in 10.0 mi NE 6.9 mph - N/A   Clear
1:54 AM 63.0 °F 50.0 °F 63% 29.91 in 10.0 mi NE 5.8 mph - N/A   Clear
2:54 AM 57.0 °F 50.0 °F 77% 29.91 in 10.0 mi Calm Calm - N/A   Clear
3:54 AM 57.0 °F 50.0 °F 77% 29.93 in 10.0 mi North 3.5 mph - N/A   Clear
4:54 AM 57.9 °F 46.9 °F 67% 29.96 in 10.0 mi NNE 8.1 mph - N/A   Clear
5:54 AM 57.0 °F 46.0 °F 67% 29.97 in 10.0 mi NNE 4.6 mph - N/A   Clear
6:54 AM 57.0 °F 44.1 °F 62% 30.00 in 10.0 mi NNE 6.9 mph - N/A   Clear
7:54 AM 61.0 °F 43.0 °F 52% 30.02 in 10.0 mi NE 10.4 mph - N/A   Partly Cloudy
8:54 AM 62.1 °F 39.9 °F 44% 30.04 in 10.0 mi NE 11.5 mph - N/A   Clear
9:54 AM 63.0 °F 44.1 °F 50% 30.04 in 10.0 mi ENE 9.2 mph - N/A   Clear
10:54 AM 66.0 °F 43.0 °F 43% 30.06 in 10.0 mi NE 10.4 mph - N/A   Partly Cloudy
11:54 AM 64.4 °F 44.6 °F 49% 30.06 in 10.0 mi East 15.0 mph - N/A   Clear
12:54 PM 66.0 °F 44.1 °F 45% 30.04 in 10.0 mi NE 4.6 mph - N/A   Clear
1:54 PM 66.9 °F 46.0 °F 47% 30.02 in 10.0 mi ENE 8.1 mph - N/A   Clear
2:54 PM 64.9 °F 45.0 °F 48% 30.01 in 10.0 mi ENE 9.2 mph - N/A   Clear
3:54 PM 66.2 °F 46.4 °F 49% 30.01 in 10.0 mi ENE 12.7 mph - N/A   Clear
4:54 PM 64.9 °F 43.0 °F 45% 30.00 in 10.0 mi ENE 10.4 mph - N/A   Clear
5:54 PM 64.0 °F 45.0 °F 50% 30.02 in 10.0 mi ENE 9.2 mph - N/A   Clear
6:54 PM 62.1 °F 42.1 °F 48% 30.04 in 10.0 mi East 8.1 mph - N/A   Clear
7:54 PM 57.9 °F 43.0 °F 58% 30.04 in 10.0 mi ESE 4.6 mph - N/A   Clear
8:54 PM 55.9 °F 45.0 °F 67% 30.06 in 10.0 mi East 4.6 mph - N/A   Clear
9:54 PM 55.0 °F 46.9 °F 74% 30.08 in 10.0 mi East 3.5 mph - N/A   Clear
10:54 PM 54.0 °F 46.0 °F 75% 30.09 in 10.0 mi East 4.6 mph - N/A   Clear
11:54 PM 54.0 °F 44.1 °F 69% 30.09 in 10.0 mi ESE 6.9 mph - N/A   Clear